Preview of NWS' New Version of Forecast
This preview is not operational and should not be used for support decisions.

Regional Weather Roundup (RWR)

Issued by National Weather Service (NWS)

                            
000
ASUS44 KJAN 191310
RWRMS 

MISSISSIPPI HOURLY WEATHER ROUNDUP
NATIONAL WEATHER SERVICE JACKSON MS
800 AM CDT THU SEP 19 2019

NOTE: "FAIR: INDICATES FEW OR NO CLOUDS BELOW 12,000 FEET WITH NO
SIGNIFICANT WEATHER AND/OR OBSTRUCTIONS TO VISIBILITY.

MSZ001>002-007>008-010>013-018>021-025>028-034>036-191400-
NORTHWEST MISSISSIPPI
  
CITY           SKY/WX    TMP DP  RH WIND       PRES   REMARKS
BATESVILLE     FAIR      73  70  88 CALM      30.01R                  
CLARKSDALE       N/A     73  73 100 CALM      29.99S                  
CLEVELAND      FAIR      75  74  99 CALM      29.99R                  
GREENWOOD      FAIR      77  70  79 NE3       29.99R                  
GREENVILLE     FAIR      74  70  87 CALM      29.98R                  
OLIVE BRANCH   SUNNY     77  72  83 SE8       30.02R                  
OXFORD         FAIR      75  68  78 VRB7G14   30.03R                  
TUNICA           N/A     73  68  83 E3        30.01R                  
WINONA         FAIR      74  70  88 CALM      30.01R                  
$$

MSZ003>006-009-014>017-022>024-029>033-037>039-191400-
NORTHEAST MISSISSIPPI
  
CITY           SKY/WX    TMP DP  RH WIND       PRES   REMARKS
ABERDEEN       FAIR      73  57  56 SE5       30.06R                  
COLUMBUS AFB   FAIR      75  71  86 E3        30.04R                  
CORINTH        FAIR      72  68  88 SE8       30.05R                  
GOLDN TRIANGLE FAIR      77  72  84 SE13      30.04R                  
STARKVILLE       N/A     72  68  88 SE6       30.04R                  
TUPELO         FAIR      77  68  73 SE10      30.04R                  
$$

MSZ040-058-191400-
CENTRAL MISSISSIPPI
  
CITY           SKY/WX    TMP DP  RH WIND       PRES   REMARKS
JACKSON INTL   FAIR      76  71  85 CALM      30.00R                  
JACKSON HAWKNS FAIR      75  71  87 CALM      30.00R                  
MADISON        FAIR      73  73 100 CALM      30.01R                  
MERIDIAN KEY   FAIR      78  69  73 E10       30.02R                  
MERIDIAN NAS   PTSUNNY   76  69  79 SE8       30.04R                  
RAYMOND        FAIR      72  72 100 CALM      30.00R                  
VICKSBURG VKS  SUNNY     73  73 100 CALM      30.00R                  
$$

MSZ059>079-191400-
SOUTH MISSISSIPPI
  
CITY           SKY/WX    TMP DP  RH WIND       PRES   REMARKS
BROOKHAVEN     FAIR      70  70 100 CALM      30.02R                  
HATTIESBURG    FAIR      75  71  87 CALM      30.00S                  
LAUREL         SUNNY     78  71  80 NE6       30.00S                  
MCCOMB         FAIR      73  69  87 CALM      30.00R                  
NATCHEZ        FAIR      71  69  93 CALM      29.99R                  
PINE BELT        N/A    N/A N/A N/A MISG        N/A                   
$$

MSZ080>082-191400-
COASTAL MISSISSIPPI
  
CITY           SKY/WX    TMP DP  RH WIND       PRES   REMARKS
BAY ST LOUIS   SUNNY     72  72 100 CALM      29.98S                  
BILOXI         PTSUNNY   77  72  83 CALM      29.99R                  
PASCAGOULA     NOT AVBL                                               
GULFPORT       NOT AVBL                                               
$$

LAZ007>009-015>016-023>026-191400-
NORTHEAST LOUISIANA
  
CITY           SKY/WX    TMP DP  RH WIND       PRES   REMARKS
BASTROP        FAIR      72  72  98 CALM      29.99S                  
TALLULAH/VBURG FAIR      76  71  85 CALM      29.99R                  
VIDALIA        FAIR     N/A N/A N/A CALM      29.98R                  
$$